Flag for Canada Weather past 2 weeks in Whitehorse, Yukon Territory, Canada

Now
23 °F

Passing clouds.


Feels Like: 16 °F
Forecast: 20 / 38 °F
Wind: 6 mph from South

Location: Withehorse

Current Time: Mar 5, 2015 at 10:56:57 PM

Latest Report: Mar 5, 2015 at 10:00 PM


Visibility: 15 mi

Pressure: 30.03 "Hg

Humidity: 86%

Dew point: 19 °F

Location of WhitehorseLocation

Historic Weather in Whitehorse — Graph

°F

Whitehorse temperature yesterday

Maximum temperature yesterday: 28 °F (at 4:00 PM)
Minimum temperature yesterday: 14 °F (at 7:00 AM)
Average temperature yesterday: 23 °F

Past Weeks' High & Low Weather Summary

 TemperatureHumidityPressure
High46 °F (Feb 23, 4:00 PM)93% (Feb 19, 1:00 AM)30.66 "Hg (Feb 19, 1:00 AM)
Low1 °F (Feb 27, 7:00 AM)23% (Mar 1, 2:00 PM)29.85 "Hg (Feb 18, 9:00 PM)
Average26 °F69%30.30 "Hg
* Reported Feb 18 9:00 PM — Mar 5 9:00 PM, Whitehorse, Weather by CustomWeather, © 2015

Note: Actual official high and low records may vary slightly from our data, if they occured in-between our weather recording intervals... More about our weather records

Advertising

Whitehorse weather history for previous 24 hours

 ConditionsComfort  
Time TempWeatherWind HumidityBarometerVisibility
9:00 PM
Thu, Mar 5
27 °FPassing clouds.2 mph74%30.00 "Hg15 mi
8:00 PM28 °FPartly cloudy.3 mph69%29.96 "Hg15 mi
7:00 PM30 °FPassing clouds.6 mph69%29.93 "Hg40 mi
6:00 PM28 °FPassing clouds.5 mph69%29.91 "Hg40 mi
5:00 PM36 °FPassing clouds.2 mph56%29.89 "Hg40 mi
4:00 PM36 °FPassing clouds.2 mph56%29.88 "Hg40 mi
3:00 PM34 °FPassing clouds.No wind70%29.88 "Hg40 mi
2:00 PM34 °FPassing clouds.5 mph70%29.89 "Hg40 mi
1:00 PM32 °FPassing clouds.8 mph75%29.90 "Hg40 mi
12:00 PM28 °FPassing clouds.3 mph80%29.90 "Hg40 mi
11:00 AM23 °FPassing clouds.2 mph93%29.91 "Hg40 mi
10:00 AM19 °FPassing clouds.No wind93%29.92 "Hg30 mi
9:00 AM19 °FPassing clouds.No wind93%29.92 "Hg20 mi
8:00 AM21 °FPassing clouds.5 mph93%29.91 "Hg30 mi
7:00 AM21 °FPassing clouds.5 mph93%29.92 "Hg40 mi
6:00 AM23 °FPassing clouds.2 mph93%29.92 "Hg15 mi
5:00 AM25 °FPassing clouds.13 mph86%29.92 "Hg15 mi
4:00 AM25 °FPassing clouds.13 mph86%29.93 "Hg15 mi
3:00 AM27 °FMostly cloudy.16 mph93%29.93 "Hg15 mi
2:00 AM27 °FMostly cloudy.16 mph93%29.93 "Hg15 mi
1:00 AM28 °FMostly cloudy.3 mph86%29.94 "Hg15 mi
12:00 AM28 °FMostly cloudy.16 mph86%29.94 "Hg15 mi
11:00 PM
Wed, Mar 4
28 °FPartly cloudy.14 mph86%29.95 "Hg15 mi
10:00 PM28 °FPartly cloudy.12 mph86%29.96 "Hg15 mi
Weather by CustomWeather, © 2015

See weather overviewHow to use our weather pages